Wind_Speed
29 30 30 30 31 30 31 32 31 31 32 33 34 34 34 34 35 35 35 35 36 37 37 37 38 38 38 38 39 38 38 37 38 38 38 40 40 40 40 39 38 38 37 38
29 29 29 30 30 30 30 31 31 32 31 32 32 32 33 34 34 34 34 34 35 36 36 36 37 38 38 38 38 38 38 38 38 38 39 40 39 40 40 40 39 38 39 39
30 30 30 30 30 30 30 30 31 31 31 31 32 32 31 31 32 33 32 32 33 35 36 36 36 37 37 37 37 38 39 39 39 39 39 40 40 40 40 39 39 39 39 39
30 30 30 29 29 30 29 29 31 31 31 31 31 33 31 31 31 31 31 32 32 33 35 36 36 36 37 37 37 38 38 39 39 39 39 40 40 39 39 39 39 39 39 38
31 31 30 29 29 29 29 29 29 30 31 32 31 33 31 30 31 31 31 32 32 33 33 35 36 36 37 37 37 38 39 39 39 39 39 40 40 40 39 39 39 39 39 39
32 32 30 30 29 28 28 29 30 30 30 32 30 33 32 30 31 31 32 32 33 32 33 34 35 36 37 37 37 38 39 39 39 39 39 39 38 39 39 39 39 39 39 40
31 31 31 30 30 29 29 29 29 30 30 31 29 32 32 30 31 32 32 32 33 33 33 34 35 36 37 37 37 37 38 38 39 39 38 38 38 39 39 38 38 39 39 39
31 30 29 30 30 30 29 28 28 29 30 30 30 30 30 30 31 32 32 32 33 33 34 34 35 36 37 38 38 38 38 39 38 38 38 38 39 39 39 38 39 39 39 40
30 30 29 29 29 29 29 28 28 29 30 30 31 31 30 29 30 31 32 32 32 33 34 34 35 36 37 38 39 39 39 39 38 38 38 39 39 39 38 39 39 39 39 40
30 30 29 28 28 28 28 28 28 29 29 30 31 30 30 29 28 30 31 32 33 33 33 34 34 36 36 37 39 39 40 39 40 39 38 38 38 38 38 38 39 40 39 39
30 30 29 29 28 28 28 28 28 28 28 29 31 30 29 29 28 29 30 31 31 32 33 34 35 35 36 36 37 38 40 40 39 39 38 38 39 38 38 38 38 39 39 39
29 30 30 29 28 27 28 28 28 28 28 28 30 29 27 28 28 29 29 29 30 31 33 34 34 34 35 35 36 37 38 39 38 38 39 38 39 40 39 39 39 39 38 39
29 30 30 30 28 27 28 28 29 30 31 31 30 29 26 27 28 28 28 28 29 30 32 32 33 33 33 34 36 37 38 38 38 37 38 38 39 40 39 39 38 38 39 39
31 31 30 30 29 29 29 29 29 30 31 32 31 29 27 27 27 28 28 28 28 29 30 31 31 32 32 32 33 35 36 38 38 38 37 37 38 39 39 39 38 37 38 38
31 31 30 30 30 30 31 30 30 30 31 32 31 29 27 27 27 28 29 28 29 29 29 29 30 30 31 32 32 33 34 35 37 37 37 38 39 38 38 39 39 37 37 37
31 31 31 30 30 31 31 31 30 30 30 30 30 28 27 28 28 29 30 30 30 30 30 30 30 29 30 31 31 32 32 34 35 37 37 37 37 37 38 38 38 38 38 37
31 31 32 32 31 31 31 30 30 29 29 29 29 28 29 29 29 29 30 31 31 30 30 30 30 30 30 30 30 31 32 33 35 36 37 37 37 37 37 37 37 37 37 38
29 30 32 32 31 32 30 29 29 29 28 29 28 27 28 30 29 30 30 30 30 30 30 30 30 30 30 31 31 31 33 33 35 36 36 35 36 37 36 36 36 37 37 38
26 28 29 31 32 33 30 29 29 29 28 27 27 27 27 28 28 28 29 29 30 30 30 32 32 31 32 32 32 32 32 33 34 35 35 36 35 36 36 36 36 36 36 37
26 27 28 29 31 31 30 29 29 29 29 27 27 27 27 28 28 28 29 29 29 30 31 32 33 33 33 33 33 32 32 32 33 33 34 35 35 34 35 35 35 35 36 37
26 27 28 28 30 30 29 29 29 29 28 27 27 28 28 28 28 28 29 30 30 30 31 32 32 33 33 33 33 32 33 33 32 32 32 33 33 34 34 35 35 35 36 36
26 27 27 28 29 28 27 28 28 28 27 27 27 27 28 28 28 28 28 28 28 29 29 30 31 31 31 32 32 32 32 31 31 31 32 32 32 33 34 34 35 35 36 37
26 26 27 27 27 27 27 27 26 27 27 27 27 27 28 28 29 28 28 27 27 27 28 28 29 29 30 30 31 31 31 31 31 32 32 32 33 33 33 34 35 35 36 36
26 26 27 27 26 27 27 26 26 26 27 27 28 28 28 28 28 27 26 26 26 27 28 28 28 29 29 29 30 30 30 30 31 31 31 32 33 33 34 34 34 34 35 36
26 27 28 28 27 27 26 26 25 25 26 26 26 27 27 27 26 25 25 25 26 26 26 27 28 29 29 29 29 29 30 30 30 30 30 31 31 32 33 33 33 34 34 35
25 26 26 27 26 27 25 25 26 26 26 26 26 26 26 25 25 25 25 25 25 25 25 26 27 27 27 28 28 28 29 30 30 30 30 30 31 31 32 32 33 33 33 34
Wind_Direction
282 282 283 284 285 284 280 279 278 276 272 268 264 261 259 258 256 255 255 256 256 256 254 252 251 250 249 249 249 249 247 247 247 247 248 249 249 249 249 249 251 252 254 255
281 282 284 285 285 283 280 279 278 278 274 270 266 261 259 258 257 256 256 257 258 257 255 253 251 250 249 249 249 249 248 247 247 248 249 249 248 248 249 250 251 252 254 256
282 284 284 286 286 283 280 279 278 278 276 271 267 262 260 259 258 257 257 259 260 258 255 253 251 250 250 250 249 249 249 248 248 248 250 249 248 249 249 250 251 252 254 255
282 283 283 285 286 285 282 281 278 276 275 272 269 267 260 259 258 258 260 261 260 259 256 253 251 250 249 249 249 248 248 249 248 248 250 249 249 248 250 251 252 253 254 256
282 283 282 283 284 284 283 281 279 276 275 272 270 270 266 263 261 260 261 261 260 258 256 255 253 251 250 250 249 249 249 250 250 250 251 250 250 250 251 252 253 253 255 256
282 281 281 282 283 283 283 281 279 278 275 272 271 272 269 265 265 263 262 261 260 259 257 256 255 252 251 250 249 249 248 249 250 252 252 251 251 251 251 251 253 253 254 256
282 281 281 280 281 282 282 281 280 278 277 276 274 273 272 269 268 267 265 263 260 259 259 258 256 254 252 251 250 250 249 250 251 253 253 251 252 253 252 251 252 254 255 256
282 281 281 280 281 283 281 280 280 281 281 279 275 274 275 273 271 269 267 265 262 260 260 259 257 255 253 252 251 250 251 251 252 253 253 253 254 254 254 253 253 255 256 257
283 282 282 281 281 281 281 277 277 278 279 279 276 276 276 275 273 271 268 265 263 262 261 261 258 256 255 252 251 250 251 250 251 252 252 253 254 254 254 254 255 256 258 259
280 281 283 282 280 279 279 279 278 278 278 279 278 277 276 276 275 272 270 267 264 263 263 262 260 257 255 254 252 251 252 251 251 251 252 252 252 252 253 255 257 257 258 259
278 278 280 280 280 280 278 277 277 277 277 280 280 279 279 277 275 273 271 267 264 263 264 263 262 260 258 255 254 253 252 252 252 251 252 252 252 252 253 254 256 258 259 259
276 276 277 278 279 279 278 278 278 277 274 275 280 281 281 278 275 273 270 268 266 265 264 264 263 260 258 257 256 255 253 252 252 252 251 252 252 252 253 255 255 256 257 257
273 276 278 278 277 277 278 279 278 277 275 274 276 278 279 279 276 273 270 268 267 265 265 265 264 261 259 259 259 258 256 254 253 252 250 251 253 253 253 254 255 255 255 255
271 273 275 277 278 277 277 277 277 276 276 275 275 275 276 276 275 272 269 269 267 266 265 264 264 262 260 260 260 260 258 255 254 253 251 252 252 252 253 254 254 253 254 255
272 273 273 273 274 275 276 277 277 276 277 277 276 274 274 274 273 271 272 271 268 267 266 265 264 262 261 260 262 260 258 256 254 253 254 254 254 252 252 252 252 252 252 254
273 272 272 272 273 274 274 275 276 275 276 278 277 274 273 272 273 272 272 271 269 268 267 265 264 263 262 261 261 261 258 255 253 253 255 254 254 252 252 251 251 251 253 255
274 273 273 272 272 274 275 275 275 275 276 276 277 275 272 272 273 273 273 272 270 268 265 264 263 261 262 261 261 261 259 257 255 254 255 255 254 253 251 250 251 252 254 256
275 273 273 272 272 274 276 276 274 275 276 277 276 275 273 272 272 273 273 274 272 268 264 263 263 261 261 261 261 262 261 260 258 256 255 254 253 252 251 250 251 253 254 254
275 274 273 273 274 276 275 276 276 275 275 276 277 275 273 272 272 272 274 274 272 269 265 264 263 263 262 261 260 260 261 260 258 257 256 255 253 252 251 251 253 253 253 254
274 274 274 274 276 278 278 277 277 277 277 277 278 276 274 274 274 273 273 274 273 271 268 265 263 263 262 261 259 259 258 258 258 256 256 255 254 253 252 253 255 255 255 256
273 274 275 276 276 278 279 278 277 278 279 278 277 277 277 276 276 276 275 274 273 272 270 268 265 264 261 259 258 257 257 256 256 256 256 255 254 252 253 255 257 257 256 257
276 275 275 276 277 279 279 279 278 279 278 278 278 279 278 277 277 276 276 275 273 271 271 269 266 264 262 260 258 257 255 255 256 256 255 255 254 255 255 256 257 258 259 259
276 276 276 276 277 279 278 279 279 279 279 279 279 279 280 278 278 276 274 273 273 272 271 270 267 265 263 262 259 257 256 256 256 258 257 256 256 256 256 257 257 258 259 259
277 275 275 275 275 276 277 278 279 279 280 281 282 282 281 280 279 276 273 273 273 272 272 270 269 267 265 264 260 258 258 257 257 257 257 257 257 256 257 258 258 258 259 259
278 278 278 277 277 276 276 277 278 278 280 281 283 285 284 282 280 277 276 275 276 275 273 272 271 268 266 264 262 260 258 257 258 258 258 258 258 258 259 260 260 260 260 261
279 281 281 278 276 275 275 275 276 278 279 280 282 284 283 281 279 278 276 276 276 276 275 274 271 269 267 265 263 261 259 258 259 259 259 260 261 261 260 261 261 261 261 261
Height
5684 5684 5682 5680 5678 5676 5674 5673 5673 5673 5672 5671 5671 5673 5675 5677 5679 5681 5683 5685 5688 5690 5693 5696 5698 5701 5704 5706 5709 5712 5714 5717 5719 5722 5724 5727 5730 5732 5735 5737 5740 5743 5745 5747
5677 5676 5674 5672 5670 5669 5667 5666 5666 5666 5664 5663 5663 5665 5668 5669 5671 5674 5675 5677 5679 5682 5684 5687 5689 5692 5694 5697 5700 5703 5706 5708 5710 5713 5715 5717 5720 5723 5725 5728 5731 5734 5736 5738
5669 5669 5666 5665 5664 5662 5660 5659 5659 5658 5657 5656 5656 5658 5660 5662 5663 5666 5668 5669 5671 5673 5675 5677 5680 5682 5685 5688 5691 5694 5697 5699 5701 5704 5706 5708 5711 5713 5716 5719 5722 5724 5727 5729
5661 5661 5659 5658 5657 5654 5654 5653 5651 5650 5649 5649 5650 5649 5653 5655 5656 5658 5660 5661 5663 5664 5666 5668 5671 5673 5676 5679 5682 5685 5687 5690 5692 5695 5697 5699 5702 5705 5707 5710 5713 5715 5718 5720
5653 5653 5652 5651 5650 5648 5647 5646 5644 5643 5642 5641 5642 5641 5645 5647 5649 5651 5652 5654 5655 5656 5658 5660 5662 5665 5667 5670 5673 5676 5678 5681 5683 5686 5688 5690 5693 5696 5698 5701 5703 5706 5709 5711
5646 5644 5644 5643 5642 5641 5639 5639 5637 5636 5634 5634 5636 5635 5636 5639 5641 5643 5645 5646 5647 5648 5650 5651 5653 5656 5658 5661 5664 5667 5669 5671 5674 5676 5679 5681 5684 5686 5689 5691 5694 5697 5699 5702
5637 5637 5636 5635 5635 5634 5632 5631 5630 5628 5626 5627 5629 5627 5629 5632 5633 5635 5636 5637 5638 5640 5641 5643 5645 5647 5650 5652 5655 5657 5660 5662 5664 5667 5669 5671 5674 5676 5679 5682 5685 5688 5690 5692
5628 5629 5629 5627 5627 5625 5624 5624 5623 5621 5620 5620 5620 5619 5623 5624 5624 5625 5626 5628 5629 5631 5633 5635 5636 5638 5641 5643 5645 5648 5651 5653 5655 5657 5660 5662 5665 5667 5670 5673 5675 5678 5680 5682
5620 5621 5621 5620 5619 5618 5617 5617 5617 5615 5613 5613 5613 5613 5615 5616 5616 5616 5617 5619 5620 5622 5624 5626 5627 5629 5631 5633 5636 5638 5640 5643 5645 5647 5650 5652 5655 5657 5660 5663 5665 5667 5670 5672
5613 5613 5614 5613 5612 5611 5611 5610 5610 5608 5606 5605 5606 5606 5607 5608 5607 5608 5608 5610 5611 5613 5614 5616 5618 5620 5622 5624 5626 5628 5631 5633 5635 5638 5640 5642 5645 5647 5650 5652 5655 5657 5659 5662
5606 5605 5606 5606 5605 5605 5604 5604 5602 5601 5600 5600 5599 5602 5600 5600 5600 5600 5601 5601 5602 5604 5605 5607 5608 5610 5612 5614 5616 5618 5620 5623 5625 5628 5630 5633 5635 5637 5640 5642 5644 5647 5649 5651
5598 5598 5597 5598 5598 5597 5596 5596 5596 5595 5594 5593 5592 5596 5593 5593 5592 5592 5593 5593 5594 5595 5597 5598 5599 5601 5602 5604 5606 5608 5610 5613 5615 5618 5620 5623 5625 5627 5630 5632 5635 5637 5639 5641
5590 5590 5590 5590 5592 5591 5590 5589 5588 5587 5587 5586 5585 5589 5587 5586 5585 5585 5585 5586 5586 5587 5588 5589 5591 5592 5593 5595 5597 5598 5600 5603 5605 5607 5610 5613 5615 5617 5619 5622 5624 5626 5628 5630
5582 5582 5583 5583 5582 5582 5581 5581 5580 5580 5578 5578 5579 5580 5580 5578 5578 5578 5578 5578 5578 5579 5580 5581 5582 5583 5585 5586 5588 5589 5591 5592 5595 5597 5600 5603 5605 5607 5609 5611 5613 5616 5618 5620
5573 5574 5574 5574 5574 5573 5573 5573 5572 5572 5571 5571 5572 5572 5573 5571 5570 5570 5570 5570 5571 5571 5572 5573 5574 5575 5576 5577 5578 5580 5581 5583 5585 5587 5590 5593 5595 5597 5599 5601 5603 5606 5608 5610
5565 5565 5566 5566 5566 5565 5564 5565 5565 5564 5564 5563 5563 5564 5565 5563 5562 5562 5562 5563 5563 5564 5564 5565 5565 5566 5568 5569 5570 5571 5572 5574 5576 5578 5581 5583 5585 5587 5589 5591 5594 5596 5598 5600
5557 5557 5557 5558 5558 5556 5557 5558 5557 5557 5556 5556 5555 5557 5556 5556 5555 5555 5555 5555 5555 5555 5556 5557 5557 5558 5559 5560 5562 5563 5563 5565 5567 5569 5571 5573 5575 5577 5579 5582 5584 5586 5589 5590
5549 5549 5549 5549 5550 5549 5553 5551 5550 5549 5549 5548 5548 5548 5548 5548 5548 5547 5547 5547 5546 5547 5548 5548 5549 5550 5551 5552 5553 5554 5555 5556 5558 5559 5561 5563 5565 5567 5570 5572 5574 5576 5578 5580
5542 5542 5541 5541 5540 5541 5544 5543 5542 5541 5542 5541 5540 5540 5539 5539 5539 5540 5539 5538 5538 5538 5539 5539 5540 5541 5542 5543 5544 5544 5545 5547 5548 5550 5551 5553 5555 5557 5560 5562 5564 5566 5568 5570
5535 5534 5534 5533 5532 5533 5536 5536 5534 5534 5534 5534 5532 5531 5531 5530 5531 5533 5531 5530 5529 5529 5530 5530 5531 5531 5532 5533 5534 5535 5536 5537 5538 5540 5541 5543 5545 5548 5550 5552 5554 5556 5558 5560
5527 5527 5526 5526 5524 5525 5528 5527 5526 5527 5528 5525 5524 5523 5523 5522 5523 5523 5522 5521 5521 5521 5521 5521 5521 5522 5522 5523 5524 5525 5526 5528 5529 5530 5532 5534 5536 5538 5540 5542 5544 5546 5548 5550
5520 5520 5519 5519 5518 5521 5520 5519 5519 5519 5518 5516 5516 5515 5515 5514 5513 5513 5512 5512 5512 5512 5512 5512 5512 5512 5513 5513 5515 5516 5517 5518 5520 5521 5523 5525 5526 5528 5530 5532 5534 5535 5537 5540
5513 5514 5512 5512 5514 5513 5512 5511 5511 5510 5510 5509 5508 5507 5507 5506 5505 5504 5504 5503 5503 5503 5503 5503 5503 5503 5504 5504 5505 5506 5508 5509 5510 5512 5514 5515 5517 5518 5520 5522 5524 5525 5527 5529
5507 5506 5505 5505 5506 5505 5504 5504 5503 5503 5502 5501 5501 5500 5499 5498 5497 5496 5496 5495 5495 5495 5495 5494 5495 5495 5495 5495 5496 5497 5499 5500 5501 5503 5504 5506 5507 5509 5511 5512 5513 5515 5517 5518
5499 5498 5497 5497 5498 5497 5497 5496 5495 5495 5494 5494 5493 5492 5491 5490 5489 5488 5488 5487 5487 5487 5486 5486 5486 5486 5486 5487 5487 5488 5490 5491 5493 5494 5496 5497 5498 5499 5501 5502 5503 5505 5507 5508
5492 5491 5490 5490 5490 5489 5489 5488 5488 5487 5487 5486 5486 5485 5484 5482 5482 5481 5480 5480 5479 5479 5478 5478 5478 5478 5478 5478 5479 5480 5481 5482 5484 5485 5487 5488 5489 5490 5491 5492 5494 5495 5496 5497